Drummond Island, MI

10:54 AM EDT on July 20, 2017 (GMT -0400)
Drummond Island

Weather History for KDRM - March, 2014

Change the Weather History Date:

Tuesday, March 11, 2014

  Actual Average (KCIU) Record (KCIU)
Temperature  
Mean Temperature 31 °F -  
Max Temperature 41 °F 33 °F 51 °F (2012)
Min Temperature 21 °F 6 °F -18 °F (1984)
Degree Days  
Heating Degree Days 34    
Moisture  
Dew Point 24 °F    
Average Humidity 78    
Maximum Humidity 98    
Minimum Humidity 56    
Precipitation  
Precipitation 0.00 in - - ()
Sea Level Pressure  
Sea Level Pressure 29.66 in    
Wind  
Wind Speed 2 mph (WNW)    
Max Wind Speed 13 mph    
Max Gust Speed 23 mph    
Visibility 10 miles    
Events      
Averages and records for this station are not official NWS values.
T = Trace of Precipitation, MM = Missing Value Source: NWS Daily Summary

Daily Weather History Graph

Daily Weather History Graph

Search for Another Location

Airport or City:

Trip Planner

Search our weather history database for the weather conditions in past years. The results will help you decide how hot, cold, wet, or windy it might be!

Date:

Astronomy

Mar. 11, 2014 Rise Set
Actual Time 7:55 AM EDT 7:35 PM EDT
Civil Twilight 7:25 AM EDT 8:05 PM EDT
Nautical Twilight 6:50 AM EDT 8:39 PM EDT
Astronomical Twilight 6:15 AM EDT 9:15 PM EDT
Moon 2:59 PM EDT (3/11) 5:00 AM EDT (3/11)
Length of Visible Light 12h 39m
Length of Day
11h 40m
Waxing Gibbous, 78% of the Moon is Illuminated
Mar 11
Waxing Gibbous
Mar 16
Full
Mar 23
Last Quarter
Mar 30
New
Apr 7
First Quarter

Hourly Weather History & Observations

Time (EDT) Temp. Windchill Dew Point Humidity Pressure Visibility Wind Dir Wind Speed Gust Speed Precip Events Conditions
12:15 AM 33.1 °F - 28.4 °F 83% 29.51 in 10.0 mi Calm Calm - N/A   Clear
12:35 AM 32.9 °F - 28.4 °F 84% 29.51 in 10.0 mi Calm Calm - N/A   Clear
12:55 AM 32.0 °F - 28.2 °F 86% 29.51 in 10.0 mi Calm Calm - N/A   Clear
1:15 AM 31.8 °F - 27.7 °F 85% 29.51 in 10.0 mi Calm Calm - N/A   Clear
1:35 AM 30.7 °F - 27.1 °F 86% 29.51 in 10.0 mi Calm Calm - N/A   Clear
1:55 AM 30.0 °F - 27.0 °F 88% 29.51 in 10.0 mi Calm Calm - N/A   Clear
2:15 AM 28.6 °F - 26.4 °F 92% 29.52 in 10.0 mi Calm Calm - N/A   Clear
2:35 AM 26.8 °F - 25.0 °F 93% 29.52 in 10.0 mi Calm Calm - N/A   Clear
2:55 AM 26.1 °F - 24.8 °F 95% 29.52 in 10.0 mi Calm Calm - N/A   Clear
3:15 AM 26.6 °F - 25.5 °F 96% 29.52 in 10.0 mi Calm Calm - N/A   Clear
3:34 AM 27.0 °F - 26.1 °F 96% 29.53 in 7.0 mi Calm Calm - N/A   Clear
3:55 AM 26.6 °F - 25.7 °F 96% 29.53 in 10.0 mi Calm Calm - N/A   Clear
4:15 AM 24.8 °F - 23.9 °F 96% 29.53 in 7.0 mi Calm Calm - N/A   Clear
4:34 AM 24.6 °F - 23.7 °F 96% 29.54 in 10.0 mi Calm Calm - N/A   Clear
4:55 AM 25.3 °F - 24.4 °F 96% 29.54 in 10.0 mi Calm Calm - N/A   Clear
5:14 AM 26.1 °F - 25.2 °F 96% 29.55 in 10.0 mi Calm Calm - N/A   Clear
5:35 AM 23.9 °F - 23.0 °F 96% 29.55 in 7.0 mi Calm Calm - N/A   Clear
5:55 AM 23.7 °F - 23.0 °F 97% 29.55 in 7.0 mi Calm Calm - N/A   Clear
6:14 AM 23.0 °F - 22.5 °F 98% 29.56 in 7.0 mi Calm Calm - N/A   Clear
6:35 AM 24.6 °F - 23.9 °F 97% 29.57 in 10.0 mi Calm Calm - N/A   Clear
6:55 AM 22.3 °F - 21.4 °F 96% 29.58 in 7.0 mi Calm Calm - N/A   Clear
7:15 AM 22.1 °F - 21.2 °F 96% 29.59 in 10.0 mi Calm Calm - N/A   Clear
7:35 AM 21.4 °F - 20.3 °F 96% 29.60 in 7.0 mi Calm Calm - N/A   Clear
7:54 AM 22.6 °F - 21.7 °F 96% 29.61 in 5.0 mi Calm Calm - N/A   Clear
8:15 AM 21.7 °F - 20.7 °F 96% 29.61 in 7.0 mi Calm Calm - N/A   Clear
8:35 AM 21.4 °F - 20.3 °F 96% 29.62 in 7.0 mi Calm Calm - N/A   Clear
8:54 AM 23.9 °F - 23.0 °F 96% 29.62 in 10.0 mi Calm Calm - N/A   Clear
9:15 AM 26.6 °F - 25.7 °F 96% 29.63 in 10.0 mi Calm Calm - N/A   Clear
9:34 AM 30.6 °F - 29.8 °F 97% 29.64 in 10.0 mi Calm Calm - N/A   Clear
9:55 AM 32.9 °F - 30.6 °F 91% 29.65 in 10.0 mi Calm Calm - N/A   Scattered Clouds
10:15 AM 35.6 °F - 29.5 °F 78% 29.64 in 10.0 mi Calm Calm - N/A   Overcast
10:34 AM 36.9 °F 34.3 °F 29.7 °F 75% 29.65 in 10.0 mi SW 3.5 mph - N/A   Mostly Cloudy
10:55 AM 38.8 °F 35.4 °F 29.5 °F 69% 29.66 in 10.0 mi West 4.6 mph - N/A   Scattered Clouds
11:15 AM 38.7 °F 34.3 °F 28.9 °F 68% 29.67 in 10.0 mi WNW 5.8 mph - N/A   Mostly Cloudy
11:35 AM 39.2 °F - 28.9 °F 67% 29.66 in 10.0 mi Calm Calm - N/A   Overcast
11:55 AM 39.7 °F 37.6 °F 28.8 °F 65% 29.67 in 10.0 mi WNW 3.5 mph - N/A   Overcast
12:15 PM 39.9 °F 37.8 °F 28.8 °F 64% 29.67 in 10.0 mi WNW 3.5 mph - N/A   Mostly Cloudy
12:35 PM 40.5 °F 35.8 °F 29.1 °F 64% 29.67 in 10.0 mi WNW 6.9 mph - N/A   Mostly Cloudy
12:55 PM 41.0 °F 35.8 °F 29.1 °F 63% 29.68 in 10.0 mi WNW 8.1 mph - N/A   Overcast
1:15 PM 40.3 °F 35.5 °F 28.8 °F 63% 29.68 in 10.0 mi WNW 6.9 mph - N/A   Overcast
1:35 PM 39.7 °F 36.5 °F 28.4 °F 64% 29.68 in 10.0 mi West 4.6 mph - N/A   Overcast
1:55 PM 38.8 °F 33.8 °F 27.7 °F 64% 29.69 in 10.0 mi NW 6.9 mph 16.1 mph N/A   Overcast
2:14 PM 39.4 °F 31.8 °F 26.4 °F 60% 29.70 in 10.0 mi WNW 12.7 mph 17.3 mph N/A   Overcast
2:35 PM 38.3 °F 30.9 °F 25.5 °F 60% 29.70 in 10.0 mi WNW 11.5 mph 23.0 mph N/A   Overcast
2:55 PM 37.4 °F 30.8 °F 25.3 °F 62% 29.71 in 10.0 mi WNW 9.2 mph 19.6 mph N/A   Overcast
3:14 PM 36.7 °F 30.5 °F 24.6 °F 62% 29.72 in 10.0 mi WNW 8.1 mph 16.1 mph N/A   Overcast
3:35 PM 36.3 °F 30.1 °F 23.9 °F 61% 29.72 in 10.0 mi NW 8.1 mph 16.1 mph N/A   Overcast
3:55 PM 35.6 °F 29.9 °F 23.7 °F 62% 29.72 in 10.0 mi NW 6.9 mph 16.1 mph N/A   Overcast
4:14 PM 35.6 °F 28.0 °F 23.4 °F 61% 29.72 in 10.0 mi NW 10.4 mph 17.3 mph N/A   Scattered Clouds
4:35 PM 35.6 °F 27.5 °F 23.0 °F 60% 29.72 in 10.0 mi NW 11.5 mph 18.4 mph N/A   Clear
4:55 PM 35.6 °F 28.0 °F 22.8 °F 60% 29.73 in 10.0 mi NW 10.4 mph 19.6 mph N/A   Clear
5:15 PM 34.7 °F 27.5 °F 20.3 °F 56% 29.73 in 10.0 mi NW 9.2 mph 23.0 mph N/A   Clear
5:35 PM 34.3 °F 27.7 °F 20.1 °F 56% 29.73 in 10.0 mi WNW 8.1 mph 23.0 mph N/A   Clear
5:55 PM 33.8 °F 27.0 °F 21.4 °F 60% 29.72 in 10.0 mi WNW 8.1 mph 18.4 mph N/A   Clear
6:15 PM 33.8 °F 27.7 °F 22.5 °F 63% 29.73 in 10.0 mi NW 6.9 mph - N/A   Clear
6:35 PM 32.9 °F 25.3 °F 21.0 °F 62% 29.73 in 10.0 mi NW 9.2 mph 18.4 mph N/A   Clear
6:54 PM 32.0 °F 24.8 °F 19.2 °F 59% 29.74 in 10.0 mi NW 8.1 mph 17.3 mph N/A   Clear
7:15 PM 31.8 °F 27.3 °F 20.3 °F 62% 29.76 in 10.0 mi NW 4.6 mph - N/A   Clear
7:35 PM 30.4 °F 24.5 °F 21.2 °F 69% 29.77 in 10.0 mi WNW 5.8 mph - N/A   Clear
7:54 PM 29.8 °F 23.0 °F 21.9 °F 72% 29.78 in 10.0 mi WNW 6.9 mph - N/A   Clear
8:15 PM 29.3 °F 21.5 °F 22.1 °F 75% 29.79 in 10.0 mi WNW 8.1 mph - N/A   Clear
8:35 PM 28.9 °F 21.9 °F 22.1 °F 76% 29.79 in 10.0 mi WNW 6.9 mph - N/A   Clear
8:55 PM 28.4 °F 20.4 °F 22.1 °F 77% 29.79 in 10.0 mi WNW 8.1 mph - N/A   Clear
9:15 PM 28.2 °F 23.1 °F 21.7 °F 77% 29.79 in 10.0 mi NW 4.6 mph - N/A   Clear
9:35 PM 27.9 °F 24.0 °F 21.7 °F 78% 29.80 in 10.0 mi WNW 3.5 mph - N/A   Clear
9:55 PM 27.5 °F 23.6 °F 21.2 °F 77% 29.80 in 10.0 mi WNW 3.5 mph - N/A   Clear
10:14 PM 27.3 °F - 21.2 °F 78% 29.80 in 10.0 mi Calm Calm - N/A   Clear
10:35 PM 26.8 °F 22.8 °F 20.8 °F 78% 29.81 in 10.0 mi WNW 3.5 mph - N/A   Clear
10:54 PM 26.4 °F 20.9 °F 20.3 °F 78% 29.81 in 10.0 mi WNW 4.6 mph - N/A   Clear
11:15 PM 25.9 °F - 19.9 °F 78% 29.82 in 10.0 mi Calm Calm - N/A   Clear
11:35 PM 25.5 °F - 19.8 °F 79% 29.82 in 10.0 mi Calm Calm - N/A   Clear
11:54 PM 25.2 °F - 19.4 °F 79% 29.82 in 10.0 mi Calm Calm - N/A   Clear